Regional Weather Roundup
Issued by NWS Boston, MA

Home | Current Version | Previous Version | Text Only | Print | Product List | Glossary On
Versions: 1 2 3 4 5 6 7 8 9 10 11 12 13 14 15 16 17 18 19 20 21 22 23 24 25 26 27 28 29 30 31 32 33 34 35 36 37 38 39 40 41 42 43 44 45 46 47 48 49 50
000
ASUS41 KBOX 201610
RWRBOX

REGIONAL WEATHER ROUNDUP
NATIONAL WEATHER SERVICE TAUNTON MA
1200 PM EDT SUN AUG 20 2017

NOTE:  "FAIR" INDICATES FEW OR NO CLOUDS BELOW 12,000 FEET WITH NO
SIGNIFICANT WEATHER AND/OR OBSTRUCTIONS TO VISIBILITY.

MAZALL-201700-
EASTERN MASSACHUSETTS

CITY           SKY/WX    TMP DP  RH WIND       PRES   REMARKS
BOSTON         MOSUNNY   82  61  48 NW10G18   29.95R
BEVERLY        MOSUNNY   82  62  50 NW12      29.94R
LAWRENCE       PTSUNNY   80  60  50 NW12G17   29.97R
BEDFORD        MOSUNNY   81  58  45 NW12G18   29.95R
BLUE HILL        N/A     80  59  48 NW9G16    29.97R
NORWOOD        SUNNY     83  62  49 NW10      29.95R
MARSHFIELD     MOSUNNY   82  61  47 VRB7G13   29.94S
PLYMOUTH       SUNNY     82  59  45 W8        29.95S
TAUNTON        SUNNY     83  59  44 NW9       29.95R
NEW BEDFORD    SUNNY     82  61  48 W8G16     29.95S
$$

MAZALL-201700-
CAPE COD AND THE ISLANDS

CITY           SKY/WX    TMP DP  RH WIND       PRES   REMARKS
FALMOUTH       SUNNY     81  61  50 W13       29.96S
HYANNIS        SUNNY     82  63  52 VRB7      29.94R
CHATHAM        SUNNY     80  63  55 NW8       29.96R
PROVINCETOWN   SUNNY     77  64  64 NW9       29.96R
NANTUCKET      SUNNY     79  68  69 SW12      29.96R
MARTHAS VNYRD  SUNNY     80  64  58 W10       29.96R
$$

MAZALL-201700-
CENTRAL AND WESTERN MASSACHUSETTS

CITY           SKY/WX    TMP DP  RH WIND       PRES   REMARKS
WORCESTER      PTSUNNY   75  56  51 W14       30.02R
FITCHBURG      MOSUNNY   80  58  46 NW14      29.99R
ORANGE         PTSUNNY   75  58  55 NW12G18   30.00R
SPRINGFIELD    MOSUNNY   77  59  54 NW10      29.99S
WESTFIELD      PTSUNNY   80  58  46 N13G20    30.01R
NORTH ADAMS    PTSUNNY   73  58  59 VRB5      30.03R
PITTSFIELD     MOSUNNY   72  57  59 W10G22    30.05R
$$

RIZALL-201700-
RHODE ISLAND

CITY           SKY/WX    TMP DP  RH WIND       PRES   REMARKS
PROVIDENCE     MOSUNNY   82  61  48 NW13      29.98R
NEWPORT        SUNNY     79  63  57 W10       29.98R
BLOCK ISLAND   SUNNY     77  64  64 W14       30.00S
WESTERLY       SUNNY     82  61  48 NW9       30.00R
$$

CTZALL-201700-
CONNECTICUT

CITY           SKY/WX    TMP DP  RH WIND       PRES   REMARKS
BRADLEY INTL   MOSUNNY   80  59  48 NW14      30.01S
HARTFORD       CLOUDY    78  60  53 VRB6      30.01R
BRIDGEPORT     PTSUNNY   79  60  52 NW9       30.03R
DANBURY        MOSUNNY   77  61  57 NW9       30.07R
GROTON         MOSUNNY   81  61  50 NW8       29.99R
NEW HAVEN      PTSUNNY   78  61  55 VRB7      30.03R
CHESTER        FAIR      77  59  53 W8G20     30.03R
MERIDEN        MOSUNNY   77  58  51 NW8G21    30.02S
WILLIMANTIC    MOSUNNY   79  60  52 W12G21    30.01R
OXFORD         PTSUNNY   74  61  63 NW8       30.06R
$$

MEZ002-015-021-024-NHZ003-005-008-011-012-014-VTZ005-008-201700-
NORTHERN NEW ENGLAND

CITY           SKY/WX    TMP DP  RH WIND       PRES   REMARKS
PORTLAND ME    MOSUNNY   81  56  42 NW16      29.91R
BANGOR ME      PTSUNNY   78  61  55 NW12G18   29.87R
CONCORD NH     MOSUNNY   79  57  46 NW16G25   29.96R
MANCHESTER NH  PTSUNNY   79  57  46 NW12      29.94S
NASHUA NH      PTSUNNY   79  60  52 NW12G18   29.96S
PORTSMOUTH NH  MOSUNNY   81  60  48 W13G21    29.92R
JAFFREY NH     PTSUNNY   74  59  59 CALM      30.01S
KEENE NH         N/A    N/A N/A N/A MISG        N/A
BURLINGTON VT  MOSUNNY   75  56  51 NW6       30.01S
MT. WASHINGTON FOG       45  45 100 NW51G60     N/A  VSB 0
$$

NYZ052-076-201700-
EASTERN NEW YORK

CITY           SKY/WX    TMP DP  RH WIND       PRES   REMARKS
ALBANY         PTSUNNY   76  59  55 NW13      30.05R
NEW YORK CITY  PTSUNNY   79  59  50 NW14      30.05R
$$

ANZALL-201700-
MARINE OBSERVATIONS

STATION/POSITION TIME  TEMP    WIND        PRES    VSBY  WAVE
                       AIR SEA DIR/SP/G                  HT/PER
                 (UTC) (F)     (DEG/KT/KT) (MB)    (MI)  (FT/S)
BOSTON BUOY      1450   69 65  280/  6/  6 1013.3          1/ 6
BUZZARDS BAY     1500   72     260/ 11/ 12 1015.2R
NANTUCKET SOUND  1450   73 72  280/ 10/ 12 1013.8          1/ 6
MASS BAY-STELLWA 1504   71 67  320/  6/  8 1012.6R         2/ 5
ISLE OF SHOALS   1500   73     290/ 11/ 12 1012.9R
S OF BLOCK IS    NOT AVBL
$$

......................KEY.........................
  SKY/WX - SKY CONDITION/PRESENT WEATHER
  TMP    - TEMPERATURE IN FAHRENHEIT
  DWPT   - DEWPOINT IN FAHRENHEIT
  RH     - RELATIVE HUMIDITY IN PERCENT
  WIND   - DIRECTION AND SPEED IN MPH
  PRES   - MEAN SEA LEVEL PRESSURE IN INCHES OF HG
  WCI    - WIND CHILL INDEX
  VSB    - VISIBILITY IN MILES
  HX     - HEAT INDEX
  TC     - TEMPERATURE IN CELSIUS
  VRB    - VARIABLE WIND DIRECTION
  N/A    - NOT AVAILABLE



USA.gov is the U.S. government's official web portal to all federal, state and local government web resources and services.